Погода в Твери

Хотите узнать прогноз погоды в Твери? Тогда Вам сюда: Погода в Твери

Поиск расширенной информации на нашем сайте:

Полезная информация:

Новости сайта



02.01.2020
Опубликован Долгосрочный прогноз погоды по городам России и ближнего зарубежья на январь 2020 года.
Карты: Прогноз на январь и февраль 2020 года, Сравнение прогнозируемой аномалии приземной температуры воздуха на январь 2020 года по разным моделям.




Погода в Твери - сегодня

Время (UTC), дата Ветер
(°,м/с) 
Видим.   Явления Облачность Т
(°С)
Тd
(°С)
f(%) Тe
(°С)
Pmin
(гПа)
dP
(гПа)
Po
(мм)
O2
(г/м3)
Тmin Tmax R s Состояние
почвы
15 09.08.20 340 (С) 10 км    4/3 1000 м средняя 
[Sc|Ac trans]
+23.9 +10.6 43 +26  1016.3  -1  750  276           
18 09.08.20 тихо ()   10 км    4/3 1500 м средняя 
[Sc diur, vesp|Ac trans]
+17.7 +13.8 78 +24  1016.6  750  281    +25.9       
21 09.08.20 тихо ()   10 км    1/0 средняя 
[Ac trans]
+14.2 +12.2 88 +18  1017  0.1  750  285           
00 10.08.20 тихо ()   10 км  туман поземный  ясно 
+12.9 +11.6 92 +16  1016.8  -0.2  750  286           
03 10.08.20 тихо ()   0500 м  туман  ясно 
+13.3 +12.8 97 +18  1016.7  -0.1  749  285  +12.5         
06 10.08.20 270 (З) 10 км  {туман}  3/0 средняя 
[Ac trans]
+21.1 +15.5 70 +31  1015.7  -0.5  749  277  +12.5        сухая 
09 10.08.20 240 (ЮЗ) 10 км    8/8 600 м 
[Cu med, cong]
+25.1 +14.2 51 +32  1014.6  -0.8  749  273           
12 10.08.20 тихо ()   10 км  гроза без осадков{ливн. осадки}  8/8 600 м кучево-дожд. 
[Cb calv]
+19.1 +15.3 79 +28  1013.8  -1.1  748  278           
15 10.08.20 270 (З) 10 км  {гроза, ливн. осадки}  8/0 средняя, верхняя 
[Ac trans|Ci fib]
+20.8 +16.2 75 +32  1013.4  -0.3  747  276         
18 10.08.20 270 (З) 10 км  {гроза, ливн. осадки}  8/4 1000 м средняя 
[Sc|Ac trans]
+17.9 +16.5 92 +30  1013.8  0.2  748  279    +26.8     
21 10.08.20 320 (СЗ) 10 км    5/5 1000 м 
[Sc]
+16.7 +15.5 93 +28  1014  0.1  748  281           
00 11.08.20 310 (СЗ) 10 км    8/3 1000 м средняя 
[Sc|Ac trans]
+14.4 +12 85 +20  1014.7  0.5  748  284           
03 11.08.20 310 (СЗ) 10 км    3/0 средняя 
[Ac trans]
+12.6 +10.6 88 +16  1015.2  0.4  748  286  +12.6         
06 11.08.20 350 (С) 10 км    9/5 600 м средняя 
[Sc|Ac trans]
+14.5 +10.5 77 +18  1015  -0.2  748  284  +12.6        влажная 
09 11.08.20 300 (СЗ) 10 км    10/10 1000 м кучево-дожд. 
[Cb cap]
+15.2 +9.3 68 +17  1015.2  0.3  748  284           
12 11.08.20 280 (З) 10 км    8/4 1000 м кучево-дожд., средняя 
[Cb cap|Ac trans]
+17.1 +9.6 61 +20  1015.1  748  282           
15 11.08.20 310 (СЗ) 10 км    9/5 1000 м кучево-дожд., средняя 
[Cb cap|Ac trans]
+15 +8.9 67 +16  1015.2  748  284           
18 11.08.20 310 (СЗ) 10 км    9/5 1000 м кучево-дожд., средняя 
[Cb cap|Ac trans]
+13.5 +9.4 76 +15  1015.1  -0.2  748  286    +18       
21 11.08.20 310 (СЗ) 10 км    9/5 1000 м средняя 
[Sc|Ac trans]
+12.2 +10.2 88 +14  1014.8  -0.3  748  287           
00 12.08.20 тихо ()   10 км    9/8 300 м средняя 
[Sc|Ac trans]
+11.8 +10.6 92 +14  1014.2  -0.6  748  287           
03 12.08.20 280 (З) 2000 м  слаб. ливневой дождь  10/10 200 м кучево-дожд. 
[Cb cap]
+12.3 +11.1 92 +17  1013.6  -0.5  747  286  +11.5    0.8     
06 12.08.20 330 (СЗ) 4000 м  слаб. дождь{ливн. осадки}  10/10 200 м 
[Frnb|Ns]
+12.7 +11.5 92 +17  1013.9  0.3  747  286  +11.5      влажная 
09 12.08.20 340 (С) 10 км  в посл. час дождь  10/10 300 м 
[St]
+13.5 +11.6 88 +17  1014.3  0.4  748  285           
12 12.08.20 350 (С) 10 км  {дождь}  9/9 300 м 
[Sc]
+14.3 +11.2 82 +18  1014.9  0.7  748  284           
15 12.08.20 350 (С) 10 км    9/9 1000 м 
[Sc]
+14.4 +11.3 82 +19  1015.5  0.6  749  284         
Время (UTC), дата Ветер
(°,м/с) 
Видим.   Явления Облачность Т
(°С)
Тd
(°С)
f(%) Тe
(°С)
Pmin
(гПа)
dP
(гПа)
Po
(мм)
O2
(г/м3)
Тmin Tmax R s Состояние
почвы

Для получения пояснительной информации подведите курсор к названию столбца.

ПОГОДА в Твери - архив

Всё, что Вы хотите узнать о погоде в Твери - удобно и подробно!

Выберите нужную дату (начиная с 1 января 2019* года) и нажмите кнопку "Найти".
Будут отображены архивные сводки погоды по пункту Тверь, начиная с указанной даты.


Отображать данные в формате CSV (для использования в таблицах Excel)


Внимание! Наш архив погоды предназначен исключительно для личного некоммерческого использования в познавательных целях. Если Вам необходимы официальные справки о состоянии погоды (для производственных, юридических, коммерческих и т.п. целей), обращайтесь в органы Росгидромета.

*Примечание: данная дата относится к архиву по метеостанциям СССР (Россия, СНГ, Балтия).
Архив по метеостанциям Зарубежной Европы и Азии (кроме Китая) хранится 10 дней, по другим регионам земного шара (Китай, Африка, Америка, Австралия, Океания) - 1 день.

Тверь - район местоположения метеостанции


Название, широта, долгота, высота метеостанции:
Тверь (город) 56.8°ш. 35.7°д. 137 м над ур. моря [Российская Федерация]

Дополнительная информация

В oтличие oт бoльшинства пoгoдных сайтoв мы публикуем пoдрoбную метеoинфoрмацию в детальнoм прoфессиoнальнoм фoрмате.

Характеристики температуры и влажнoсти вoздуха измеряются на высoте 2 м в тени вдали oт зданий и деревьев.
Скoрoсть ветра измеряется на высoте 10 м (на урoвне рoста челoвека скoрoсть ветра ниже в 1.5-2 раза). Если метеoстанция нахoдится в гoрoде или в лесу, тo скoрoсть ветра занижена на 2-4 м/с пo сравнению с oткрытым местoм. Скoрoсть ветра над акватoриями крупных рек и oзёр, а также на вершинах хoлмoв на 2-5 м/с выше, чем в oбычных услoвиях.
Атмoсфернoе давление в разных тoчках местнoсти мoжет значительнo oтличаться oт давления на метеoстанции, в зависимoсти oт услoвий рельефа (при пoдъёме на 10 м давление пoнижается примернo на 1 мм рт.ст.).